Location: Truman State University Observatory
(40.1787°N, 92.6006°W)
Time: 20:03:03
(UTC-06:00)

Envisat - Visible Passes

Search period start: 23 February 2018 00:00
Search period end: 05 March 2018 00:00
Orbit: 764 x 766 km, 98.2° (Epoch: 23 February)

Date Brightness Start Highest point End Pass type
(mag) Time Alt. Az. Time Alt. Az. Time Alt. Az.
23 Feb 4.4 18:22:47 10° ESE 18:26:01 17° ENE 18:29:15 10° NNE visible
23 Feb 3.5 19:59:33 10° S 20:04:32 58° W 20:09:34 10° NNW visible
24 Feb 2.9 19:22:50 10° SSE 19:27:50 63° ENE 19:32:52 10° N visible
24 Feb 5.7 21:04:33 10° WSW 21:07:16 14° W 21:10:00 10° WNW visible
25 Feb 3.8 18:47:01 10° SE 18:51:20 29° ENE 18:55:39 10° N visible
25 Feb 4.6 20:25:43 10° SSW 20:30:14 32° W 20:34:47 10° NNW visible
26 Feb 3.1 19:48:19 10° S 19:53:23 74° WSW 19:58:29 10° NNW visible
27 Feb 3.2 19:11:52 10° SE 19:16:45 49° ENE 19:21:38 10° N visible
27 Feb 5.5 20:52:32 10° SW 20:56:01 18° W 20:59:31 10° NW visible
28 Feb 4.1 18:36:21 10° ESE 18:40:18 23° ENE 18:44:14 10° NNE visible
28 Feb 4.2 20:14:17 10° SSW 20:19:02 41° W 20:23:50 10° NNW visible
01 Mar 2.9 19:37:11 10° SSE 19:42:15 87° ENE 19:47:22 10° NNW visible
02 Mar 3.4 19:00:59 10° SE 19:05:40 39° ENE 19:10:22 10° N visible
02 Mar 5.1 20:40:46 10° SSW 20:44:47 23° W 20:48:49 10° NW visible
03 Mar 4.4 18:25:49 10° ESE 18:29:16 19° ENE 18:32:44 10° NNE visible
03 Mar 3.7 20:02:55 10° S 20:07:52 52° W 20:12:50 10° NNW visible
04 Mar 2.9 19:26:06 10° SSE 19:31:08 69° ENE 19:36:12 10° N visible
04 Mar 5.8 21:08:20 10° WSW 21:10:38 13° W 21:12:56 10° WNW visible
